ONEWEB-0669 (55828 NORAD) Tracking and Keplerian Element Data

This shows tracking and keplerian element data for the satellite.

Feedback or suggestion? Click here.




ElementValue
Catalog55828
NameONEWEB-0669
Epoch Orbit862
Epoch Day126.55678594
Epoch Year2023
RAAN173.687
Inclination86.5062
Eccentricity0.0002555
Argument of Perigee124.4561
Mean Anonmoly235.6909
Mean Motion14.93154917
Decay Rate4.664E-05
L11 55828U 23029AJ 23126.55678594 .00004664 00000+0 44456-3 0 9992
L22 55828 86.5062 173.6870 0002555 124.4561 235.6909 14.93154917 8623



Live tracking and technical data element details for ONEWEB-0669 (NORAD 55828). ONEWEB-0669 can be tracked NOW for your location showing map with azimuth and elevation plus other details from your city location.







IsCatalogInMostPopularTable: catalog: 55828, numindb: 7
Update: records affected: 1



GetName: 55828 ONEWEB-0669

Hit Count: updated at: Tue, 06 Jun 2023 01:56:32 GMT